ATLAS 5 CENTAUR DEB, 46464

Orbit data source: Space-Track

ATLAS 5 CENTAUR DEB, 46464 is space debris in HEO originally from a launch on Wed, 17 Sep 2014 UTC launched from the Air Force Eastern Test Range (AFETR). Debris objects in space refer to the collection of defunct objects orbiting the Earth. Examples of debris include non-operational satellites, rocket bodies, and fragments generated from explosions, collisions, or faulty payload assembly.

Loading next visibility...
Identifier
46464, 2014-055CL
Orbit
HEO
Country
Flag of USUS
Related business
Flag of USUnited Launch Alliance/Lockheed Martin (US)
Manufacturer
Unknown
Mission
Spacecraft
Bus & Motor
Unknown
Mass
Unknown
Launch date (UTC)
2014-09-17 (12 years ago)
Launch vehicle
Unknown
Launch site
Air Force Eastern Test Range (AFETR)
Object type
Payload
Rocket body
Debris
Shape & HBR
Unknown shape, 1.1 m
Radar Cross Section
Medium (>0.1 m² and <1 m²)

Expand to show TLE details & history
Last TLE update: 1 month ago

TLE from 1 month ago
0 ATLAS 5 CENTAUR DEB
1 46464U 14055CL  26213.20086333 -.00000065  00000-0  00000-0 0  9990
2 46464  19.8077 147.8636 4796029 156.7060 235.3422  1.82516519 44664
Epoch: 2026-08-01T04:49Z
TLE epoch observation values (Epoch: 2026-08-01T04:49:14.591Z)
Latitude
0.00002°
Longitude
125.67834°
Altitude
32,574.153 km
Speed
2.525 km/s
True Right ascension
09h 51m 13s
True Declination
0° 00' 00"
Sunlit
Object was in daylight at epoch
Visualization orbit readout
Latitude
Unknown
Longitude
Unknown
Altitude
Unknown
Speed
Unknown
Apparent Right ascension
Unknown
Apparent Declination
Unknown
Sunlit
N/A
Visualization observer readout
Local Sidereal Time
01:43:40
Azimuth
Unknown
Elevation
Unknown
Doppler factor
Unknown
Orbital elements
Apogee altitude
35,473.115 km
Perigee altitude
8,341.536 km
Semi-major axis
28,285.462 km
Eccentricity
0.4796
Inclination
19.8077°
RAAN
147.8636°
Arg. of periapsis
156.706°
True anomaly
203.27915°
Mean anomaly
235.3422°
Eccentric anomaly
218.3081°
Mean motion
0.45625 °/min
Orbital period
789.05 mins
BSTAR
0
Loading maneuver chart data...
Computing Atmospheric mass density...

Documentation

Showing up to 5 results
|